sat.trackr.live / text

‹ back to catalog

ZHIHUI TIANWANG-1 01B

NORAD 59706 · 2024-087B

PAYLOAD ACTIVE UNKNOWN

§ Identity

Operator
Country
PRC
Launch date
2024-05-09
Launch site
XICLF
Launch vehicle
Mass (kg)
RCS (m²)

External: N2YO · Heavens-Above · Gunter

§ Orbital elements

Epoch: 2026-09-20T20:37:59.622240Z

Period
717.99 min
Inclination
53.1269°
Eccentricity
0.0027356
Mean motion
2.00561008 rev/d
Perigee alt
20,109.8 km
Apogee alt
20,255.1 km
Semi-major
26,560.6 km
B*
0.0000e+0
RAAN
166.6389°
Arg perigee
201.1403°
Mean anomaly
158.7886°
Rev number
1,687

§ Raw data

ZHIHUI TIANWANG-1 01B1 59706U 24087B   26263.85971785 -.00000025  00000+0  00000+0 0  99932 59706  53.1269 166.6389 0027356 201.1403 158.7886  2.00561008 16875

JSON: /api/v1/satellites/59706 · /tle

For live sub-satellite position, see the globe view (requires WebGL).

§ Visibility from observer

Set your observer location to see the next 7 days of passes ≥ 10°. The values pass through the URL so the page stays shareable.

No JS? Fill the form by hand. The geolocation button needs JavaScript.